Tracking 33485 objects as of 15-Mar-2026
HD Live streaming from Space Station
objects crossing your sky now

USA 374

Track USA 374 now!
10-day predictions


NORAD ID: 59834
Int'l Code: 2024-096W
Perigee: 582.5 km
Apogee: 585.9 km
Inclination: 70.0 °
Period: 96.2 minutes
Semi major axis: 6955 km
RCS: Unknown
Launch date: May 22, 2024
Source: United States (US)
Launch site: AIR FORCE WESTERN TEST RANGE (AFWTR)
Your satellite tracking list
Your tracking list is empty




NASA's NSSDC Master Catalog

Two Line Element Set (TLE):
1 59834U 24096W   25326.23603185 0.00000000  00000-0  00000-0 0    09
2 59834  69.9832 111.9005 0002500 255.6318 104.3682 14.96714500    03
Source of the keplerian elements: McCants